CAPE
0 0 0 0 0 0 0 0 0 276 346 597 497 391 293 121 89 95 244 314 278 224 275 262 352 297 242 414 437 292 269 360 639 695 663 603 743 908 813 764 1022 1524 1801 362
0 0 0 0 0 1 0 0 0 122 575 637 530 599 558 321 125 106 97 217 257 136 194 268 338 379 298 542 600 589 306 496 703 851 890 1108 1074 651 976 1120 1260 1350 1659 431
0 0 0 0 0 0 0 0 0 24 749 633 582 698 698 532 337 103 82 86 77 130 106 218 353 394 361 581 696 756 698 470 907 924 1015 1146 992 1106 1390 1139 1096 1212 1616 1533
0 0 0 0 0 0 0 0 0 220 328 74 448 126 390 146 482 309 128 24 23 44 55 110 189 324 405 528 595 745 928 766 1080 1150 1142 1401 1120 829 1024 1275 1230 1469 1480 1495
0 0 0 0 0 0 0 4 0 268 290 204 218 402 146 50 147 331 289 39 1 33 27 72 138 162 155 456 420 608 932 923 1153 1222 1215 1343 1302 1019 1070 1412 1523 1601 1600 1595
0 0 0 0 0 0 0 205 378 501 616 293 48 174 25 137 353 194 188 229 7 22 12 22 83 92 18 189 314 434 851 1003 1101 1287 1292 1492 1412 1312 1280 1434 1571 1406 1351 1201
0 0 0 0 0 0 0 47 18 105 396 4 38 242 83 66 25 49 20 66 153 12 89 152 122 84 70 221 199 355 787 1085 1057 1087 1250 1568 1469 1429 1573 1664 1163 1445 1329 1191
0 0 0 0 0 0 0 0 0 0 48 0 104 141 24 9 11 59 30 16 126 141 168 307 356 310 170 318 298 369 855 959 994 1104 1382 1495 1402 1081 1072 1315 1183 1150 1209 1281
0 0 0 0 0 0 0 0 0 0 0 0 0 33 13 93 201 175 141 160 157 165 228 305 496 499 194 425 542 201 445 834 885 944 1389 1415 1366 1289 1240 1292 1168 905 1108 1206
0 0 0 0 0 0 0 0 0 0 0 0 9 132 50 101 471 398 298 424 405 269 280 309 538 642 692 687 707 783 921 1082 1139 936 1319 1324 1391 1624 1605 1515 1275 1207 1176 1284
0 0 0 0 0 0 0 0 0 0 3 14 2 9 104 176 456 608 588 449 608 576 475 419 551 676 774 576 876 848 1038 1228 1088 1032 1215 1206 1247 1420 1602 1585 1696 1672 1515 1345
0 0 0 0 0 0 0 0 0 0 0 19 14 12 82 203 250 487 567 487 599 660 644 548 514 625 687 608 846 878 1024 1317 1453 1459 1333 1469 1487 1510 1420 1601 1630 1798 1754 1818
0 0 0 0 0 0 0 0 0 0 3 137 6 8 118 334 453 302 331 551 733 965 931 810 668 720 792 805 916 840 811 878 1196 1548 1720 1686 1657 1771 1839 1805 1859 1863 2006 2058
0 0 0 0 0 0 0 0 0 0 0 4 6 8 44 391 762 583 695 816 901 1080 1176 1095 965 962 929 867 932 843 757 747 879 977 1260 1382 1675 1681 1498 1931 1906 1903 1981 1933
0 0 0 0 0 0 0 0 0 0 0 6 1 66 43 382 832 802 1119 1017 1046 1138 1195 1297 1184 1117 1083 991 963 956 900 893 878 1171 1330 1453 1608 1554 1443 1333 1256 1487 1728 1752
0 0 0 0 0 0 0 0 0 0 0 14 8 163 292 232 836 830 1021 1112 1157 1206 1211 1257 1251 1201 1113 1051 1012 960 974 869 1033 1048 1087 1250 1242 1103 796 1048 955 906 1038 1196
0 0 0 0 1 0 0 0 0 1 4 83 48 174 201 628 919 1175 1273 1278 1164 1221 1177 1197 1281 1276 1141 1010 1044 1054 1087 1126 1293 1303 1365 1187 979 968 864 698 665 768 849 877
1 0 0 13 25 44 13 0 0 58 56 0 0 7 258 623 1016 1312 1378 1312 1451 1569 1488 1557 1581 1455 1354 1158 1026 1158 1209 1359 1577 1596 1506 1370 1218 1048 870 653 601 623 708 753
0 0 0 48 58 15 15 10 0 38 76 20 33 77 100 524 939 1105 1010 1137 1635 1795 1864 1892 1784 2071 2152 2009 1650 1590 1451 1445 1488 1560 1503 1318 1107 1023 933 924 933 875 826 683
0 3 34 64 0 0 96 0 0 0 81 64 10 75 429 800 812 1053 1027 1093 1563 1698 1771 1784 2063 2167 2179 2076 2041 2014 1895 1860 1723 1647 1481 1313 1254 1212 1094 941 787 637 416 303
0 0 0 9 13 0 55 0 0 8 193 0 13 82 672 948 794 1292 1094 1207 1724 1862 1807 1974 2085 1948 1982 2017 1926 1988 1931 1829 1699 1557 1355 1332 1349 1314 1046 895 763 727 795 639
8 5 3 47 57 28 0 0 73 132 1 0 0 294 516 917 619 1200 1223 1439 1857 1982 1940 2122 2195 2020 1941 1939 2013 2057 1882 1792 1577 1533 1582 1628 1412 838 587 786 844 877 722 323
158 7 1 6 30 40 36 6 14 46 10 10 14 91 321 491 702 1070 1470 1643 1869 2091 2176 2155 2339 2346 1824 1977 1981 2148 2024 1532 1462 1436 1580 1362 861 527 643 666 697 494 555 528
5 0 1 100 19 112 56 25 22 0 0 14 95 71 215 476 867 1138 1498 1671 1882 2027 2096 2153 2056 1566 892 588 820 1404 1111 1066 1137 1197 1185 806 448 336 477 200 3 115 126 132
69 1 1 25 222 155 43 0 0 0 0 6 95 111 199 445 921 1164 1325 1575 1819 1987 1552 1317 994 797 907 795 529 362 583 909 1036 1029 665 414 208 147 101 18 0 0 2 2
19 13 15 36 13 158 77 0 0 0 0 0 44 70 253 618 986 1109 1346 1671 1665 1190 809 755 771 551 302 678 880 968 986 1057 1042 869 413 145 127 81 92 5 2 0 0 0
CIN
0 0 0 0 0 0 0 0 0 -54 -76 -67 -69 -67 -66 -85 -106 -126 -81 -32 -38 -41 -25 -34 -48 -50 -49 -37 -38 -53 -38 -26 -14 -13 -11 -13 -15 -23 -27 -36 -51 -42 -29 -96
0 0 0 0 0 -15 0 0 0 -82 -76 -65 -65 -76 -77 -101 -144 -156 -133 -77 -57 -59 -79 -72 -65 -54 -55 -39 -34 -42 -57 -39 -31 -27 -32 -28 -25 -31 -29 -38 -44 -39 -35 -89
0 0 0 0 0 0 0 0 0 -41 -60 -75 -70 -62 -101 -126 -138 -162 -153 -133 -87 -81 -91 -81 -82 -70 -50 -46 -46 -48 -49 -60 -39 -39 -34 -35 -49 -41 -27 -28 -23 -32 -32 -26
0 0 0 0 0 0 0 0 0 -78 -50 -34 -81 -36 -79 -159 -148 -170 -162 -185 -158 -113 -99 -92 -90 -87 -64 -56 -53 -44 -50 -56 -37 -35 -31 -26 -10 -5 -7 -14 -18 -20 -36 -33
0 0 0 0 0 0 0 -8 0 -101 -77 -67 -79 -38 -28 -286 -156 -165 -191 -212 -89 -143 -83 -133 -139 -139 -176 -73 -77 -57 -49 -53 -43 -40 -28 -14 -13 -11 -13 -19 -33 -31 -36 -30
0 0 0 0 0 0 0 -91 -106 -106 -70 -20 -71 -39 -10 -68 -90 -136 -188 -201 -136 -176 -93 -103 -152 -161 -263 -145 -89 -67 -59 -48 -50 -51 -39 -22 -17 -21 -18 -14 -14 -18 -19 -21
0 0 0 0 0 0 0 -42 -10 -8 -13 -2 -144 -58 -17 -86 -140 -190 -184 -210 -197 -192 -110 -78 -116 -200 -286 -138 -183 -97 -79 -60 -52 -43 -36 -29 -27 -22 -17 -17 -6 -9 -9 -14
0 0 0 0 0 0 0 0 0 0 -4 0 -156 -24 -8 -154 -217 -193 -264 -240 -203 -183 -126 -105 -119 -159 -266 -145 -154 -150 -93 -79 -79 -52 -37 -34 -44 -27 -22 -20 -17 -11 -10 -9
0 0 0 0 0 0 0 0 0 0 0 0 0 -53 -98 -156 -165 -165 -183 -244 -230 -185 -153 -128 -106 -121 -267 -147 -149 -251 -181 -114 -99 -77 -52 -43 -39 -40 -25 -33 -45 -35 -38 -20
0 0 0 0 0 0 0 0 0 0 0 0 -20 -50 -11 -80 -103 -132 -138 -150 -168 -189 -179 -139 -120 -121 -147 -127 -116 -121 -97 -81 -81 -65 -51 -38 -32 -27 -26 -29 -36 -43 -47 -45
0 0 0 0 0 0 0 0 0 0 -28 0 -6 -5 -62 -84 -93 -84 -91 -147 -139 -154 -174 -176 -153 -141 -148 -176 -152 -107 -80 -67 -86 -68 -48 -42 -41 -26 -23 -18 -27 -25 -33 -38
0 0 0 0 0 0 0 0 0 0 0 -78 -38 -14 -168 -167 -159 -113 -86 -140 -136 -160 -161 -160 -153 -146 -157 -179 -97 -110 -101 -65 -65 -48 -65 -45 -36 -26 -20 -18 -21 -23 -26 -23
0 0 0 0 0 0 0 0 0 0 -58 -42 -2 -13 -268 -235 -214 -172 -116 -167 -194 -170 -171 -168 -170 -157 -150 -134 -114 -110 -130 -117 -91 -47 -34 -34 -41 -36 -32 -23 -21 -16 -15 -18
0 0 0 0 0 0 0 0 0 0 -5 -13 -6 -5 -32 -183 -135 -170 -157 -180 -191 -163 -152 -137 -144 -152 -151 -145 -155 -164 -158 -127 -117 -91 -49 -51 -30 -31 -40 -12 -16 -13 -16 -11
0 0 0 0 0 0 0 0 0 0 0 -5 -1 -56 -16 -102 -103 -122 -141 -179 -190 -176 -145 -142 -127 -152 -181 -186 -192 -166 -140 -140 -116 -83 -61 -49 -35 -35 -34 -38 -48 -29 -14 -13
0 0 0 0 0 0 0 0 0 0 0 -82 -25 -46 -78 -226 -308 -257 -199 -147 -130 -127 -127 -121 -142 -169 -180 -191 -207 -198 -165 -147 -112 -100 -86 -63 -56 -66 -91 -58 -47 -46 -37 -16
0 0 0 0 -54 0 0 0 0 -19 -68 -30 -41 -12 -250 -219 -221 -199 -205 -134 -105 -98 -117 -126 -115 -127 -172 -191 -202 -196 -174 -138 -109 -89 -73 -80 -81 -67 -55 -58 -47 -26 -15 -15
-112 -38 0 -21 -130 -8 -38 -76 0 -70 -66 0 0 -121 -169 -104 -139 -156 -129 -110 -88 -103 -118 -111 -93 -103 -123 -142 -180 -193 -179 -153 -110 -87 -65 -52 -45 -43 -43 -43 -33 -20 -6 -13
0 -14 -7 -20 -17 -30 -43 -122 0 -105 -48 -154 -117 -125 -242 -272 -193 -161 -198 -133 -86 -90 -103 -87 -90 -87 -104 -102 -146 -152 -153 -144 -119 -93 -80 -68 -56 -29 -17 -4 -1 0 0 -4
0 -67 -45 -32 0 0 -60 0 0 -121 -20 -122 -181 -165 -201 -189 -36 -33 -230 -184 -136 -109 -126 -106 -114 -115 -116 -131 -111 -91 -83 -71 -53 -44 -36 -42 -39 -25 -12 -6 -5 -5 -14 -28
0 0 0 -25 -4 0 -45 0 0 -31 -22 0 -205 -190 -240 -120 -63 -67 -188 -166 -114 -115 -144 -133 -116 -85 -90 -104 -92 -68 -63 -31 -23 -33 -40 -32 -23 -15 -12 -8 -7 -1 0 0
-64 -37 -7 -1 -2 -1 0 0 -23 -111 -201 0 0 -261 -250 -177 -273 -173 -195 -162 -155 -167 -169 -125 -98 -94 -103 -108 -88 -59 -41 -40 -46 -36 -26 -17 -15 -23 -23 -11 -2 0 0 -16
-1 -40 -4 -95 -4 -295 -371 -50 -469 -536 -499 -473 -545 -354 -323 -248 -256 -205 -175 -176 -172 -155 -141 -121 -85 -76 -125 -116 -98 -44 -35 -55 -42 -32 -21 -19 -28 -29 -17 -4 0 -1 0 0
-75 0 -96 -128 -201 -262 -339 -422 -447 -22 -327 -498 -482 -570 -404 -259 -226 -222 -222 -202 -178 -186 -162 -117 -96 -100 -170 -227 -190 -103 -117 -90 -46 -22 -14 -25 -37 -26 -10 -33 -5 -47 -49 -45
-50 -4 -28 -94 -106 -203 -290 0 0 0 0 -513 -496 -488 -442 -262 -260 -256 -263 -246 -210 -178 -189 -159 -148 -130 -129 -183 -206 -230 -189 -111 -48 -17 -34 -49 -71 -67 -58 -26 0 0 0 0
-42 -34 -1 -9 -139 -84 -151 0 0 0 0 0 -515 -581 -454 -336 -279 -293 -262 -232 -220 -239 -270 -233 -183 -177 -248 -186 -171 -158 -120 -70 -35 -28 -79 -122 -94 -71 -55 0 0 0 0 0
Wind_Speed
3 7 13 9 9 2 3 5 7 2 5 9 11 11 11 10 15 15 13 14 15 16 13 12 13 13 11 11 11 11 10 8 7 7 7 6 7 6 5 5 5 6 5 4
5 15 7 4 6 7 6 8 7 1 5 10 5 15 16 14 19 19 18 17 17 14 10 13 15 14 14 12 12 11 11 10 8 6 4 2 3 3 1 3 4 4 4 4
11 2 9 7 5 7 9 9 7 4 5 5 7 9 8 11 17 15 19 19 18 17 13 14 16 16 14 14 13 12 11 10 9 8 4 3 3 3 3 4 4 5 5 5
7 6 6 4 7 8 13 4 9 7 6 4 2 6 6 5 12 17 17 19 17 17 14 14 15 16 16 16 13 12 11 12 10 10 7 6 5 5 3 4 4 5 5 5
7 6 13 17 16 8 5 4 1 4 3 5 4 5 3 2 7 17 18 18 19 18 16 17 18 17 16 15 14 14 13 12 11 11 10 7 6 3 3 3 5 4 4 5
13 1 5 15 6 9 6 8 8 5 1 4 2 4 7 3 4 3 12 19 20 19 18 17 14 11 8 11 13 13 14 13 12 12 12 11 8 6 5 5 5 6 4 4
9 13 9 4 7 4 7 6 1 2 2 4 1 5 10 5 9 11 9 13 19 19 18 16 16 15 12 16 13 13 15 15 13 13 12 12 11 9 8 6 6 6 5 5
11 10 10 10 15 8 12 8 4 5 5 5 2 6 4 2 7 6 4 7 13 18 18 18 18 16 13 16 16 13 14 14 13 13 13 11 10 7 7 7 6 6 6 5
6 6 2 7 6 10 7 7 1 3 1 5 2 6 11 3 4 2 2 6 11 16 18 20 16 16 14 17 17 15 12 12 13 14 12 12 10 10 8 8 7 6 6 6
7 7 5 2 6 3 6 11 5 3 5 7 3 5 6 4 6 4 4 6 8 11 14 15 14 14 14 15 15 14 14 15 13 13 12 12 12 11 9 7 8 8 7 7
10 6 3 1 10 14 6 6 2 2 3 4 4 5 3 5 6 9 7 7 7 10 13 14 14 11 11 11 10 13 13 12 11 12 12 13 12 12 10 9 9 9 8 7
11 9 13 18 1 1 4 7 14 9 8 1 4 5 2 4 6 5 5 7 6 8 10 10 11 12 13 12 12 12 10 10 10 10 10 12 11 11 11 11 11 9 9 7
10 8 7 6 7 3 5 7 8 5 4 7 6 5 4 3 6 8 6 7 7 8 9 10 11 12 12 12 12 12 10 10 10 10 11 11 11 11 12 12 11 10 10 9
11 6 10 9 7 4 6 8 11 12 6 7 9 12 7 6 6 7 7 9 10 10 9 9 8 9 10 11 11 11 10 10 9 10 10 9 10 8 6 7 9 10 9 9
9 9 8 14 11 8 11 11 15 13 11 10 11 10 15 8 11 11 10 10 11 11 10 9 9 8 8 9 10 10 9 9 9 9 10 10 7 7 7 5 5 7 8 9
3 6 3 6 3 10 13 11 15 13 7 4 5 8 7 3 5 9 10 11 11 10 9 9 8 9 9 10 10 10 11 11 10 10 10 8 8 8 5 6 6 5 6 7
5 4 5 7 1 5 5 15 16 13 11 11 9 11 7 7 11 13 13 12 12 11 10 10 10 9 9 10 9 10 9 10 11 10 8 8 8 8 8 7 6 7 7 6
6 2 2 4 3 16 1 4 15 19 15 13 5 8 10 8 8 10 13 14 12 11 11 10 9 9 9 9 10 9 9 8 8 8 8 8 8 7 6 7 9 8 8 9
18 6 4 7 8 5 4 4 6 11 12 16 14 5 4 4 8 6 10 10 11 9 9 10 9 8 8 10 11 10 8 7 6 6 5 5 5 5 6 7 7 7 8 8
14 9 7 4 14 16 6 4 4 2 10 11 15 8 9 12 9 9 16 13 11 11 10 10 11 10 9 8 9 9 8 7 6 6 5 5 5 4 4 4 5 5 6 6
5 6 12 11 12 16 5 8 5 4 4 11 10 11 14 12 3 6 17 14 13 13 13 12 11 10 8 8 8 8 7 6 4 4 5 5 4 3 2 3 3 4 5 5
5 5 9 13 15 15 3 4 21 4 6 8 7 8 16 11 4 11 17 17 16 15 14 14 11 9 8 8 7 7 6 4 4 4 5 5 4 3 2 4 4 4 5 4
7 4 6 6 8 5 5 1 3 6 5 6 10 8 10 11 9 10 14 16 15 16 14 12 11 10 6 6 5 6 3 5 4 5 5 4 3 2 2 3 4 5 4 5
0 3 4 9 2 6 4 2 4 7 8 11 8 12 10 11 10 11 14 13 14 14 15 13 12 10 8 5 5 4 3 4 5 6 5 3 3 2 3 3 3 4 5 5
1 3 7 8 3 2 3 12 11 13 11 11 12 11 11 11 11 13 14 14 14 15 13 13 12 10 9 7 5 4 4 5 6 5 5 4 3 4 4 4 3 3 2 2
5 4 8 3 10 6 5 10 6 13 14 13 13 11 5 11 13 14 13 15 15 15 12 11 10 9 9 7 7 6 5 5 5 5 4 2 2 3 4 5 3 5 4 4
Wind_Direction
177 216 223 221 217 228 280 291 301 260 179 197 234 263 243 205 207 218 215 210 213 222 231 210 201 194 190 188 186 182 188 193 186 180 177 186 202 203 201 203 188 162 161 141
178 227 222 188 222 239 252 286 288 178 157 204 243 259 246 228 224 216 212 210 215 219 210 197 193 193 189 194 197 184 193 195 201 197 188 194 160 173 172 163 164 162 164 155
220 280 173 192 212 241 249 266 277 289 132 214 279 269 231 231 230 232 224 220 217 214 203 196 190 194 191 193 196 193 193 198 201 199 188 168 137 143 163 168 175 177 179 180
244 228 220 183 247 236 276 226 251 202 203 288 253 299 267 226 230 224 229 213 210 209 207 199 198 192 193 198 192 197 192 197 201 190 201 213 188 185 176 182 178 175 185 182
212 213 221 241 249 216 284 50 249 188 198 287 184 254 270 225 232 229 224 216 211 205 202 200 202 195 193 190 187 193 195 198 201 195 204 211 212 202 164 178 176 196 185 200
247 242 228 225 218 194 135 103 95 103 247 252 93 247 281 216 224 234 223 216 207 200 201 201 195 188 184 187 189 187 192 198 204 198 199 208 219 206 195 186 190 191 195 207
229 233 243 203 240 140 195 189 219 190 197 279 98 227 264 252 264 261 277 223 207 200 197 195 193 186 184 193 189 188 194 197 199 207 204 208 209 215 220 205 206 204 207 209
219 227 202 190 215 215 194 228 233 254 222 283 147 237 267 172 300 288 271 226 198 199 196 192 195 190 184 192 190 189 195 202 198 203 211 214 209 213 221 219 221 224 225 225
186 245 223 205 172 185 157 206 238 136 106 268 259 259 265 256 215 227 170 179 192 195 199 195 190 191 186 194 191 182 181 197 201 208 210 209 213 213 221 224 226 230 233 229
198 263 243 157 162 81 223 144 170 195 227 256 214 277 280 240 194 202 184 200 189 193 196 197 193 189 190 196 195 188 194 196 200 206 210 211 214 215 225 219 221 230 240 244
197 232 202 212 208 195 159 192 112 116 280 258 283 298 200 227 193 188 187 204 192 189 191 189 189 187 184 180 180 192 195 195 198 204 207 215 216 216 222 227 221 225 227 230
202 213 236 246 213 270 217 227 212 220 197 266 305 277 152 220 185 202 163 187 186 182 185 186 184 176 178 180 181 187 186 193 203 204 205 215 220 222 218 226 226 221 220 221
173 222 229 221 185 150 210 194 207 143 134 192 253 272 160 224 217 225 175 155 166 163 165 172 178 184 186 186 190 200 201 206 204 197 197 202 209 215 223 222 225 223 225 227
175 203 218 232 225 161 182 187 204 206 204 204 236 269 245 192 204 197 165 145 155 159 164 168 177 184 190 193 193 201 207 212 204 202 205 209 213 209 219 234 233 230 223 234
206 238 213 243 252 216 246 195 182 210 203 211 239 218 252 202 184 188 157 141 146 152 167 171 177 180 186 190 196 207 204 192 192 196 199 205 200 197 189 208 223 237 236 243
281 243 193 266 325 233 241 237 200 210 196 222 198 230 238 141 140 161 165 154 151 162 169 165 169 177 181 190 193 195 198 193 189 199 206 199 186 181 184 192 221 235 247 246
287 234 182 248 337 156 239 228 203 193 196 191 186 217 161 181 193 176 168 174 167 166 159 165 172 174 178 183 185 191 192 192 200 208 203 195 203 205 194 189 202 219 226 232
255 268 227 203 191 235 94 300 224 205 194 195 238 221 208 220 189 179 180 172 170 163 163 156 158 151 150 150 161 166 168 177 184 190 191 189 190 198 201 210 221 234 234 238
215 204 234 223 227 286 232 143 173 198 220 205 220 211 202 154 149 191 192 182 173 163 160 154 143 134 133 137 142 147 154 159 169 175 174 175 181 185 188 205 215 223 228 240
193 218 222 219 229 234 202 125 27 346 243 204 210 200 168 163 176 199 180 176 154 156 152 151 143 138 142 138 144 139 140 156 167 169 163 158 166 177 194 210 226 231 236 249
209 173 208 223 244 240 255 115 94 199 250 317 217 197 171 195 217 149 159 168 163 156 154 148 151 147 148 147 152 145 155 185 174 157 156 165 177 190 235 251 238 262 257 251
304 257 199 210 218 235 135 139 185 207 308 318 304 235 198 188 132 155 166 162 159 156 152 159 151 147 155 161 173 165 189 167 178 189 196 187 173 197 238 270 286 276 252 256
215 8 310 289 217 2 328 90 93 24 326 329 319 312 239 181 169 164 164 162 158 158 155 156 150 149 157 172 188 199 179 172 188 204 211 188 183 227 267 298 296 279 257 257
217 18 285 309 83 54 62 62 16 51 331 312 308 283 229 205 172 163 152 155 155 155 154 154 151 156 160 168 189 217 185 195 197 204 195 183 219 248 257 268 288 281 290 284
161 321 327 288 6 167 331 26 2 24 352 344 335 312 259 199 186 161 157 160 156 151 151 157 161 165 151 137 124 143 160 168 175 176 171 189 227 254 264 260 274 247 224 256
180 185 248 268 342 312 320 347 356 9 346 342 329 322 261 202 172 165 157 155 152 153 155 156 161 140 123 134 141 134 144 163 166 178 188 202 240 273 272 275 248 208 262 210